EHI
2 2 2 1 1 0 0 0 0 0 0 0 0 0 0 0 0 0 0 0 0 0 0 0 0 0 0 0 0 0 0 0 0 0 0 0 0 0 0 0 0 0 0
1 1 1 1 0 0 0 0 0 0 0 0 0 0 0 0 0 0 0 0 0 0 0 0 0 0 0 0 0 0 0 0 0 0 0 0 0 0 0 0 0 0 0
0 0 0 0 0 0 0 0 0 0 0 0 0 0 0 0 0 0 0 0 0 0 0 0 0 0 0 0 0 0 0 0 0 0 0 0 0 0 0 0 0 0 0
0 0 0 0 0 0 0 0 0 0 0 0 0 0 0 0 0 0 0 0 0 0 0 0 0 0 0 0 0 0 0 0 0 0 0 0 0 0 0 0 0 0 0
0 0 0 0 0 0 0 0 0 0 0 0 0 0 0 0 0 0 0 0 0 0 0 0 0 0 0 0 0 0 0 0 0 0 0 0 0 0 0 0 0 0 0
0 0 0 0 0 0 0 0 0 0 0 0 0 0 0 0 0 0 0 0 0 0 0 0 0 0 0 0 0 0 0 0 0 0 0 0 0 0 0 0 0 0 0
0 0 0 0 0 0 0 0 0 0 0 0 0 0 0 0 0 0 0 0 0 0 0 0 0 0 0 0 0 0 0 0 0 0 0 0 0 0 0 0 0 0 0
0 0 0 0 0 0 0 0 0 0 0 0 0 0 0 0 0 0 0 0 0 0 0 0 0 0 0 0 0 0 0 0 0 0 0 0 0 0 0 0 0 0 0
0 0 0 0 0 0 0 0 0 0 0 0 0 0 0 0 0 0 0 0 0 0 0 0 0 0 0 0 0 0 0 0 0 0 0 0 0 0 0 0 0 0 0
0 0 0 0 0 0 0 0 0 0 0 0 0 0 0 0 0 0 0 0 0 0 0 0 0 0 0 0 0 0 0 0 0 0 0 0 0 0 0 0 0 0 0
0 0 0 0 0 0 0 0 0 0 0 0 0 0 0 0 0 0 0 0 0 0 0 0 0 0 0 0 0 0 0 0 0 0 0 0 0 0 0 0 0 0 0
0 0 0 0 0 0 0 0 0 0 0 0 0 0 0 0 0 0 0 0 0 0 0 0 0 0 0 0 0 0 0 0 0 0 0 0 0 0 0 0 0 0 0
0 0 0 0 0 0 0 0 0 0 0 0 0 0 0 0 0 0 0 0 0 0 0 0 0 0 0 0 0 0 0 0 0 0 0 0 0 0 0 0 0 0 0
0 0 0 0 0 0 0 0 0 0 0 0 0 0 0 0 0 0 0 0 0 0 0 0 0 0 0 0 0 0 0 0 0 0 0 0 0 0 0 0 0 0 0
0 0 0 0 0 0 0 0 0 0 0 0 0 0 0 0 0 0 0 0 0 0 0 0 0 0 0 0 0 0 0 0 0 0 0 0 0 0 0 0 0 0 0
0 0 0 0 0 0 0 0 0 0 0 0 0 0 0 0 0 0 0 0 0 0 0 0 0 0 0 0 0 0 0 0 0 0 0 0 0 0 0 0 0 0 0
0 0 0 0 0 0 0 0 0 0 0 0 0 0 0 0 0 0 0 0 0 0 0 0 0 0 0 0 0 0 0 0 0 0 0 0 0 0 0 0 0 0 0
0 0 0 0 0 0 0 0 0 0 0 0 0 0 0 0 0 0 0 0 0 0 0 0 0 0 0 0 0 0 0 0 0 0 0 0 0 0 0 0 0 0 0
0 0 0 0 0 0 0 0 0 0 0 0 0 0 0 0 0 0 0 0 0 0 0 0 0 0 0 0 0 0 0 0 0 0 0 0 0 0 0 0 0 0 0
0 0 0 0 0 0 0 0 0 0 0 0 0 0 0 0 0 0 0 0 0 0 0 0 0 0 0 0 0 0 0 0 0 0 0 0 0 0 0 0 0 0 0
0 0 0 0 0 0 0 0 0 0 0 0 0 0 0 0 0 0 0 0 0 0 0 0 0 0 0 0 0 0 0 0 0 0 0 0 0 0 0 0 0 0 0
0 0 0 0 0 0 0 0 0 0 0 0 0 0 0 0 0 0 0 0 0 0 0 0 0 0 0 0 0 0 0 0 0 0 0 0 0 0 0 0 0 0 0
0 0 0 0 0 0 0 0 0 0 0 0 0 0 0 0 0 0 0 0 0 0 0 0 0 0 0 0 0 0 0 0 0 0 0 0 0 0 0 0 0 0 0
0 0 0 0 0 0 0 0 0 0 0 0 0 0 0 0 0 0 0 0 0 0 0 0 0 0 0 0 0 0 0 0 0 0 0 0 0 0 0 0 0 0 0
0 0 0 0 0 0 0 0 0 0 0 0 0 0 0 0 0 0 0 0 0 0 0 0 0 0 0 0 0 0 0 0 0 0 0 0 0 0 0 0 0 0 0
0 0 0 0 0 0 0 0 0 0 0 0 0 0 0 0 0 0 0 0 0 0 0 0 0 0 0 0 0 0 0 0 0 0 0 0 0 0 0 0 0 0 0
Wind_Speed
5 5 5 5 5 5 5 5 5 4 4 4 4 3 3 2 2 2 2 2 2 1 1 1 2 2 2 2 2 2 3 3 6 7 5 6 7 8 9 7 8 7 8
4 5 4 5 5 5 5 4 4 4 4 4 4 3 3 2 2 3 3 2 3 2 2 2 2 2 3 2 2 3 3 4 5 8 7 6 7 8 8 9 8 8 7
4 5 4 4 5 5 5 4 5 5 4 4 4 3 3 3 3 3 3 3 3 3 3 2 3 2 3 3 3 4 4 4 4 6 7 6 6 6 8 8 8 7 8
4 4 4 4 4 4 4 4 4 4 4 4 4 3 3 3 3 3 3 3 3 3 3 3 3 3 4 4 4 4 4 4 4 5 6 6 6 6 6 7 8 7 7
5 4 4 3 3 3 4 4 4 4 4 3 3 2 2 2 3 3 3 2 2 2 2 3 3 4 5 4 4 4 3 3 4 5 6 6 6 7 7 6 8 8 7
5 4 4 3 3 3 3 4 3 3 3 3 3 3 2 2 2 2 1 2 2 2 2 3 3 4 5 6 8 8 6 5 5 5 5 7 8 7 6 7 7 8 7
4 4 4 4 4 3 3 3 3 3 3 3 3 2 2 3 2 2 2 1 2 2 2 2 3 4 5 4 6 7 7 8 7 5 6 7 7 7 7 7 7 7 7
4 3 3 4 4 3 3 3 2 2 2 2 2 2 2 2 2 2 1 1 2 2 2 3 3 4 5 5 4 5 5 5 7 5 5 6 6 6 6 6 7 7 7
3 3 3 3 4 3 3 2 2 2 2 1 2 1 1 2 2 1 1 1 1 2 2 2 3 3 7 8 4 5 6 6 7 9 9 9 11 11 9 5 5 6 7
2 2 2 3 3 3 3 2 2 2 2 1 1 1 0 1 2 1 1 1 1 2 2 3 4 6 7 7 3 4 5 6 6 6 7 8 7 7 9 5 4 5 6
2 2 3 3 3 3 2 2 2 2 2 2 1 1 1 1 2 2 2 1 1 2 2 2 3 8 8 7 6 4 6 6 4 5 5 5 5 4 4 4 4 4 5
3 3 3 3 2 3 3 3 2 2 2 1 1 1 1 2 2 3 3 3 3 2 2 2 4 7 7 7 5 7 8 6 3 4 4 5 5 5 5 5 5 5 5
3 3 3 3 3 3 3 3 2 1 1 0 0 0 1 1 2 4 3 4 4 2 2 4 6 6 6 4 7 8 5 3 3 4 4 5 5 5 5 5 5 5 6
3 3 3 3 3 3 2 2 1 1 0 0 0 1 1 2 2 2 2 2 3 3 2 3 4 4 4 5 5 4 3 3 4 4 4 5 5 5 5 5 5 6 5
3 3 2 2 2 2 2 1 1 0 0 1 1 1 1 2 3 5 3 2 2 2 2 2 2 2 3 3 3 4 4 4 4 4 4 5 5 5 5 5 4 4 4
3 2 2 2 2 2 2 2 4 3 3 3 3 2 2 3 5 5 5 5 5 4 2 1 2 2 3 3 4 4 4 4 4 4 5 5 5 5 6 5 4 4 5
2 2 1 1 1 1 1 1 1 3 5 5 5 5 4 4 5 5 5 4 4 4 2 2 2 2 3 3 4 4 4 4 4 4 4 5 5 5 5 5 5 5 5
2 2 2 1 1 1 1 1 0 1 2 2 4 5 6 5 5 5 4 3 2 3 2 2 2 3 3 3 4 4 4 4 4 4 4 5 5 5 5 5 5 5 5
2 1 1 1 1 1 1 1 0 1 1 1 2 3 5 5 5 5 4 2 1 2 3 3 3 3 3 3 4 4 4 4 5 4 4 5 5 5 5 5 5 7 6
1 2 2 1 1 1 1 0 0 1 1 1 2 2 2 3 2 3 2 2 2 2 2 3 3 3 3 3 3 4 4 4 5 4 5 5 5 5 5 6 5 5 4
1 1 2 1 1 0 0 0 0 1 1 1 2 3 4 2 2 2 2 2 2 2 3 3 3 3 3 3 3 4 5 4 4 4 5 5 5 5 5 5 5 4 4
1 1 1 1 0 0 0 0 0 1 1 1 2 3 5 2 2 2 2 2 2 2 3 3 3 3 3 3 4 4 5 5 5 5 5 5 5 5 5 4 4 4 4
1 1 1 0 0 0 1 1 1 1 1 1 2 2 2 2 2 2 2 3 3 3 3 3 3 3 3 3 3 4 4 5 5 5 5 5 5 5 4 4 4 4 4
1 1 1 0 0 0 0 1 1 1 1 1 2 2 2 2 2 3 2 2 3 3 3 3 3 5 6 5 4 4 4 5 5 4 5 5 5 4 3 3 3 4 4
1 1 1 0 0 0 0 1 1 1 2 2 2 2 2 2 2 3 3 3 3 3 4 4 3 4 6 7 6 5 8 9 7 5 4 3 3 3 3 3 3 3 3
1 1 1 1 1 1 1 1 1 2 2 2 2 2 2 2 3 3 3 3 3 3 4 4 4 6 7 6 6 8 9 8 7 7 4 2 2 2 3 2 3 3 3
Wind_Direction
163 161 161 166 163 161 166 171 169 163 160 163 167 164 166 166 171 166 179 176 184 226 247 241 266 278 282 289 291 286 277 270 282 294 294 302 306 311 315 313 310 309 312
160 155 157 160 157 159 167 172 166 164 166 166 164 167 174 176 186 185 195 197 199 216 239 252 273 286 282 285 281 281 280 278 282 298 306 309 306 309 311 312 316 316 309
145 144 146 151 158 162 169 171 165 163 163 163 163 173 184 190 198 207 206 208 211 222 232 243 260 269 275 284 282 281 285 293 291 295 302 305 306 311 316 313 312 311 314
134 140 145 156 163 164 163 161 162 163 162 167 173 180 185 192 203 215 213 216 225 237 243 248 253 253 259 271 278 283 293 300 302 301 303 308 308 311 316 319 322 323 316
131 133 143 147 145 142 145 150 152 155 160 165 167 175 183 191 209 214 211 218 225 246 268 267 267 280 288 289 297 295 296 297 304 306 306 311 314 323 322 316 316 317 309
128 132 131 130 127 132 140 143 144 147 151 153 166 174 185 213 233 227 249 217 226 252 278 288 287 280 294 304 308 306 307 305 303 301 302 308 308 310 310 313 315 323 316
116 120 123 125 123 122 129 130 136 148 150 161 171 175 202 232 231 228 259 222 239 247 261 282 297 303 308 290 300 309 308 309 305 298 294 298 301 305 310 312 313 312 302
107 110 116 118 119 114 114 124 135 145 156 167 175 186 205 239 245 240 266 201 253 256 258 260 275 292 299 306 307 307 302 300 298 296 285 291 297 302 300 300 299 301 294
105 107 112 120 120 118 120 126 139 139 140 149 166 165 187 256 265 263 345 216 265 280 280 281 286 284 304 322 320 309 311 310 312 314 313 312 315 319 323 321 318 319 314
101 112 108 114 122 126 133 129 122 127 124 116 92 78 41 284 310 319 338 217 264 288 295 293 305 311 313 322 313 305 307 311 319 324 322 320 317 315 323 314 303 309 311
83 91 92 94 108 115 110 111 113 104 97 93 83 34 5 344 339 325 325 305 266 285 293 301 304 319 321 322 322 302 306 321 320 318 316 317 317 315 313 307 298 293 296
88 89 87 83 86 90 96 93 98 101 99 86 77 26 356 326 335 320 329 340 339 305 294 296 305 322 327 328 326 325 332 339 329 323 321 319 320 317 314 311 305 294 280
88 87 87 82 77 83 97 101 98 94 108 118 101 355 327 322 315 329 332 341 342 334 309 320 327 333 336 331 335 340 341 336 329 325 318 313 311 308 312 316 314 309 303
94 87 84 86 76 63 62 81 103 120 126 32 351 314 315 315 314 317 321 323 334 338 337 336 343 346 347 339 341 342 341 335 330 314 312 310 313 318 321 323 321 326 326
95 87 74 76 87 78 56 50 40 262 243 221 227 239 260 286 310 331 340 331 333 336 354 358 346 343 344 338 336 340 340 339 335 328 321 320 322 324 323 324 322 327 328
97 85 77 79 79 81 74 37 24 24 19 12 358 342 314 321 326 332 339 346 349 359 15 345 331 333 328 326 329 331 332 332 329 327 324 324 324 323 323 324 325 329 329
106 95 81 71 72 73 67 60 23 15 23 22 15 0 353 348 350 347 347 358 7 15 18 340 325 322 323 324 324 323 323 324 324 323 323 324 324 322 323 326 329 329 325
100 95 85 80 72 65 61 47 20 355 349 348 354 358 1 3 3 2 6 19 5 3 351 331 323 321 321 321 321 323 324 328 329 326 325 324 324 324 325 324 323 322 322
103 107 100 93 81 70 57 54 41 352 333 332 338 347 1 360 2 7 15 19 347 338 339 334 325 318 316 317 318 320 322 321 322 323 323 323 323 322 321 320 320 323 324
104 98 85 95 96 75 58 58 29 351 345 340 335 334 346 359 360 358 3 359 347 333 330 325 321 317 314 314 318 319 319 317 320 321 322 320 320 318 317 318 321 324 325
106 104 73 69 79 81 72 38 338 324 324 325 323 332 347 346 334 328 332 333 327 321 318 317 315 316 318 319 317 313 312 312 314 316 317 316 317 318 318 318 320 323 327
117 114 105 102 81 47 31 356 320 310 309 310 313 323 339 345 330 318 316 319 317 312 309 308 310 309 307 307 308 309 310 311 312 314 314 313 314 317 322 324 329 332 334
122 115 92 73 80 13 358 351 340 312 306 306 308 316 324 324 323 317 313 314 314 313 312 310 309 311 312 308 302 298 297 299 301 304 308 310 313 318 322 326 332 334 336
136 137 131 117 76 41 334 326 324 314 306 306 307 305 305 304 304 307 306 306 307 306 306 307 304 305 310 313 307 302 298 301 302 297 297 301 310 319 325 329 332 332 335
134 143 155 172 200 243 291 303 304 306 303 302 301 302 304 303 301 300 301 300 302 303 305 305 302 304 309 311 311 309 312 316 319 318 307 305 310 318 324 330 337 341 346
153 164 179 192 206 227 250 272 286 293 293 294 297 295 295 296 295 295 298 303 307 306 305 303 304 308 309 308 309 316 320 323 328 333 333 316 323 332 336 342 346 353 1